Flag for U.S.A. Weather past 2 weeks in Flint, Michigan, U.S.A.

Now
55 °F

Clear.


Feels Like: 53 °F
Forecast: 51 / 64 °F
Wind: 8 mph from East

Location: Bishop International Airport

Current Time: May 5, 2015 at 4:25:05 AM

Latest Report: May 5, 2015 at 3:53 AM


Visibility: 10 mi

Pressure: 30.24 "Hg

Humidity: 53%

Dew point: 38 °F

Location of FlintLocation

Historic Weather in Flint — Graph

°F

Flint temperature yesterday

Maximum temperature yesterday: 76 °F (at 4:53 PM)
Minimum temperature yesterday: 60 °F (at 7:53 AM)
Average temperature yesterday: 70 °F

Past Weeks' High & Low Weather Summary

 TemperatureHumidityPressure
High80 °F (May 3, 3:53 PM)90% (Apr 20, 5:53 AM)30.22 "Hg (Apr 20, 5:53 AM)
Low26 °F (Apr 24, 12:53 AM)23% (May 1, 4:53 PM)29.17 "Hg (Apr 20, 6:02 AM)
Average51 °F56%29.90 "Hg
* Reported Apr 20 2:53 AM — May 5 2:53 AM, Flint, Weather by CustomWeather, © 2015

Note: Actual official high and low records may vary slightly from our data, if they occured in-between our weather recording intervals... More about our weather records

Advertising

Flint weather history for previous 24 hours

 ConditionsComfort  
Time TempWeatherWind HumidityBarometerVisibility
2:53 AM
Tue, May 5
57 °FPassing clouds.7 mph51%30.22 "Hg10 mi
1:53 AM60 °FOvercast.8 mph49%30.22 "Hg10 mi
12:53 AM61 °FPassing clouds.15 mph50%30.20 "Hg10 mi
12:04 AM63 °FPartly cloudy.13 mph58%30.20 "Hg10 mi
10:53 PM
Mon, May 4
68 °FMostly cloudy.9 mph39%30.18 "Hg10 mi
9:53 PM68 °FMostly cloudy.3 mph70%30.16 "Hg10 mi
8:53 PM71 °FCloudy.5 mph59%30.13 "Hg10 mi
7:53 PM72 °FSunny.6 mph57%30.11 "Hg10 mi
6:53 PM73 °FPartly sunny.7 mph53%30.10 "Hg10 mi
5:53 PM76 °FBroken clouds.13 mph52%30.09 "Hg10 mi
4:53 PM76 °FSunny.12 mph52%30.08 "Hg10 mi
3:53 PM74 °FScattered clouds.16 mph56%30.06 "Hg10 mi
2:53 PM75 °FPassing clouds.18 mph54%30.05 "Hg10 mi
1:53 PM73 °FScattered clouds.22 mph57%30.04 "Hg10 mi
12:53 PM74 °FPartly sunny.21 mph53%30.02 "Hg10 mi
11:53 AM71 °FPartly sunny.12 mph55%30.01 "Hg10 mi
10:53 AM67 °FOvercast.13 mph61%29.98 "Hg10 mi
9:59 AM64 °FLight rain. Mostly cloudy.9 mph68%29.98 "Hg10 mi
8:53 AM64 °FOvercast.15 mph70%29.96 "Hg10 mi
7:53 AM60 °FLight rain. Overcast.8 mph86%29.98 "Hg7 mi
6:53 AM62 °FLight rain. Overcast.5 mph75%30.01 "Hg8 mi
5:53 AM68 °FOvercast.7 mph47%29.98 "Hg10 mi
4:53 AM69 °FPassing clouds.9 mph44%29.97 "Hg10 mi
Weather by CustomWeather, © 2015

See weather overviewHow to use our weather pages